Weather History for Franklin, NC

Change the Weather History Date:

Sunday, February 17, 2013

  Actual Average (KTOC) Record (KTOC)
Temperature  
Mean Temperature 27 °F -  
Max Temperature 36 °F 58 °F 57 °F (2014)
Min Temperature 18 °F 35 °F 34 °F (2014)
Degree Days  
Heating Degree Days 38    
Moisture  
Dew Point 7 °F    
Average Humidity 47    
Maximum Humidity 87    
Minimum Humidity 25    
Precipitation  
Precipitation 0.00 in - - ()
Sea Level Pressure  
Sea Level Pressure 30.13 in    
Wind  
Wind Speed 9 mph (NW)    
Max Wind Speed 17 mph    
Max Gust Speed 29 mph    
Visibility 10 miles    
Events      
Averages and records for this station are not official NWS values.
T = Trace of Precipitation, MM = Missing Value Source: NWS Daily Summary

Daily Weather History Graph

Daily Weather History Graph

Search for Another Location

Airport:

Trip Planner

Search our weather history database for the weather conditions in past years. The results will help you decide how hot, cold, wet, or windy it might be!

Date:

Astronomy

Feb. 17, 2013 Rise Set
Actual Time 7:17 AM EST 6:18 PM EST
Civil Twilight 6:51 AM EST 6:44 PM EST
Nautical Twilight 6:21 AM EST 7:13 PM EST
Astronomical Twilight 5:52 AM EST 7:43 PM EST
Moon 11:27 AM EST (2/17) 12:56 AM EST (2/17)
Length of Visible Light 11h 52m
Length of Day
11h 00m
Waxing Crescent, 49% of the Moon is Illuminated
Feb 17
Waxing Crescent
Feb 17
First Quarter
Feb 25
Full
Mar 4
Last Quarter
Mar 11
New

Hourly Weather History & Observations

Time (EST) Temp. Windchill Dew Point Humidity Pressure Visibility Wind Dir Wind Speed Gust Speed Precip Events Conditions
12:15 AM 23.9 °F 13.5 °F 6.6 °F 48% 30.03 in 10.0 mi WNW 10.4 mph 19.6 mph N/A   Scattered Clouds
12:35 AM 23.5 °F 11.8 °F 5.7 °F 47% 30.03 in 10.0 mi NW 12.7 mph 18.4 mph N/A   Clear
12:55 AM 23.0 °F 13.9 °F 5.5 °F 47% 30.03 in 10.0 mi WNW 8.1 mph 16.1 mph N/A   Clear
1:15 AM 23.0 °F 12.4 °F 4.5 °F 45% 30.04 in 10.0 mi WNW 10.4 mph 18.4 mph N/A   Clear
1:35 AM 22.3 °F 9.2 °F 5.0 °F 48% 30.04 in 10.0 mi WNW 15.0 mph 21.9 mph N/A   Clear
1:55 AM 22.5 °F 11.1 °F 4.6 °F 46% 30.04 in 10.0 mi NNW 11.5 mph 18.4 mph N/A   Clear
2:15 AM 22.1 °F 10.6 °F 4.1 °F 46% 30.05 in 10.0 mi WNW 11.5 mph 19.6 mph N/A   Clear
2:35 AM 22.1 °F 10.0 °F 3.7 °F 45% 30.04 in 10.0 mi WNW 12.7 mph 18.4 mph N/A   Clear
2:55 AM 21.7 °F 10.8 °F 4.6 °F 48% 30.04 in 10.0 mi WNW 10.4 mph 16.1 mph N/A   Clear
3:15 AM 21.7 °F 11.5 °F 5.4 °F 49% 30.05 in 10.0 mi WNW 9.2 mph 16.1 mph N/A   Clear
3:35 AM 21.9 °F 11.7 °F 5.4 °F 49% 30.05 in 10.0 mi WNW 9.2 mph - N/A   Clear
3:55 AM 21.7 °F 12.3 °F 5.9 °F 51% 30.06 in 10.0 mi WNW 8.1 mph 20.7 mph N/A   Clear
4:15 AM 21.7 °F 9.6 °F 5.9 °F 51% 30.05 in 10.0 mi WNW 12.7 mph 18.4 mph N/A   Clear
4:35 AM 21.7 °F 12.3 °F 5.5 °F 50% 30.05 in 10.0 mi WNW 8.1 mph 19.6 mph N/A   Clear
4:55 AM 21.2 °F 10.1 °F 5.7 °F 51% 30.06 in 10.0 mi WNW 10.4 mph 16.1 mph N/A   Clear
5:15 AM 21.7 °F 10.8 °F 5.4 °F 49% 30.06 in 10.0 mi NW 10.4 mph 16.1 mph N/A   Clear
5:35 AM 21.6 °F 11.3 °F 5.0 °F 49% 30.07 in 10.0 mi WNW 9.2 mph 16.1 mph N/A   Clear
5:55 AM 21.6 °F 12.1 °F 5.0 °F 49% 30.08 in 10.0 mi NW 8.1 mph 17.3 mph N/A   Clear
6:15 AM 22.1 °F 12.0 °F 4.8 °F 48% 30.08 in 10.0 mi WNW 9.2 mph 17.3 mph N/A   Clear
6:35 AM 21.9 °F 9.2 °F 5.0 °F 48% 30.09 in 10.0 mi NW 13.8 mph 19.6 mph N/A   Clear
6:55 AM 22.1 °F 12.0 °F 5.2 °F 48% 30.10 in 10.0 mi WNW 9.2 mph 19.6 mph N/A   Clear
7:15 AM 22.1 °F 10.6 °F 5.2 °F 48% 30.10 in 10.0 mi NW 11.5 mph 20.7 mph N/A   Clear
7:35 AM 22.1 °F 9.5 °F 5.7 °F 49% 30.11 in 10.0 mi NW 13.8 mph 21.9 mph N/A   Clear
7:55 AM 22.1 °F 10.6 °F 6.1 °F 50% 30.11 in 10.0 mi WNW 11.5 mph 16.1 mph N/A   Clear
8:15 AM 23.0 °F 13.1 °F 6.6 °F 50% 30.12 in 10.0 mi WNW 9.2 mph 17.3 mph N/A   Clear
8:35 AM 23.7 °F 14.0 °F 7.0 °F 49% 30.14 in 10.0 mi WNW 9.2 mph - N/A   Clear
8:55 AM 24.4 °F 14.9 °F 6.8 °F 47% 30.14 in 10.0 mi WNW 9.2 mph 16.1 mph N/A   Clear
9:15 AM 25.0 °F 17.1 °F 7.5 °F 48% 30.15 in 10.0 mi NNW 6.9 mph 10.4 mph N/A   Clear
9:35 AM 26.1 °F 16.2 °F 7.5 °F 46% 30.15 in 10.0 mi WNW 10.4 mph 18.4 mph N/A   Clear
9:55 AM 26.6 °F 16.8 °F 7.0 °F 43% 30.15 in 10.0 mi WNW 10.4 mph 20.7 mph N/A   Clear
10:15 AM 27.9 °F 17.8 °F 7.3 °F 42% 30.15 in 10.0 mi WNW 11.5 mph 25.3 mph N/A   Clear
10:35 AM 28.6 °F 20.7 °F 6.6 °F 39% 30.15 in 10.0 mi NW 8.1 mph 23.0 mph N/A   Clear
10:55 AM 29.3 °F 19.6 °F 6.3 °F 38% 30.15 in 10.0 mi NW 11.5 mph 20.7 mph N/A   Clear
11:15 AM 30.2 °F 20.8 °F 5.4 °F 35% 30.16 in 10.0 mi NW 11.5 mph 21.9 mph N/A   Clear
11:35 AM 30.9 °F 21.2 °F 6.8 °F 36% 30.16 in 10.0 mi WNW 12.7 mph 23.0 mph N/A   Clear
11:55 AM 31.8 °F 22.3 °F 3.9 °F 31% 30.16 in 10.0 mi NW 12.7 mph 23.0 mph N/A   Clear
12:15 PM 32.4 °F 24.6 °F 4.3 °F 31% 30.15 in 10.0 mi NW 9.2 mph 28.8 mph N/A   Clear
12:35 PM 32.5 °F 24.8 °F 2.8 °F 28% 30.15 in 10.0 mi NW 9.2 mph 26.5 mph N/A   Clear
12:55 PM 33.4 °F 25.4 °F 2.8 °F 27% 30.14 in 10.0 mi West 10.4 mph 23.0 mph N/A   Clear
1:15 PM 34.3 °F 25.0 °F 3.9 °F 28% 30.14 in 10.0 mi West 13.8 mph 20.7 mph N/A   Clear
1:35 PM 34.3 °F 25.0 °F 2.5 °F 26% 30.14 in 10.0 mi West 13.8 mph 19.6 mph N/A   Clear
1:55 PM 34.0 °F 24.2 °F 2.3 °F 26% 30.14 in 10.0 mi WNW 15.0 mph 25.3 mph N/A   Clear
2:15 PM 34.5 °F 24.1 °F 2.7 °F 26% 30.14 in 10.0 mi NW 17.3 mph 24.2 mph N/A   Clear
2:35 PM 34.9 °F 26.2 °F 2.1 °F 25% 30.14 in 10.0 mi WNW 12.7 mph 21.9 mph N/A   Clear
2:55 PM 36.0 °F 29.0 °F 3.0 °F 25% 30.14 in 10.0 mi WNW 9.2 mph 20.7 mph N/A   Clear
3:15 PM 35.1 °F 26.4 °F 1.9 °F 25% 30.13 in 10.0 mi NW 12.7 mph 17.3 mph N/A   Clear
3:35 PM 35.4 °F 29.0 °F 2.8 °F 25% 30.13 in 10.0 mi NNW 8.1 mph 19.6 mph N/A   Clear
3:55 PM 36.3 °F 30.8 °F 4.3 °F 26% 30.13 in 10.0 mi NNW 6.9 mph - N/A   Clear
4:15 PM 36.5 °F 32.7 °F 4.1 °F 26% 30.13 in 10.0 mi NNW 4.6 mph - N/A   Clear
4:35 PM 35.8 °F 28.3 °F 3.0 °F 25% 30.14 in 10.0 mi NNW 10.4 mph 17.3 mph N/A   Clear
4:55 PM 35.8 °F 28.8 °F 3.2 °F 25% 30.14 in 10.0 mi NW 9.2 mph - N/A   Clear
5:15 PM 35.6 °F 29.9 °F 4.1 °F 27% 30.14 in 10.0 mi NW 6.9 mph - N/A   Clear
5:35 PM 34.7 °F 27.5 °F 4.5 °F 28% 30.15 in 10.0 mi NW 9.2 mph 16.1 mph N/A   Clear
5:55 PM 34.0 °F 28.0 °F 4.6 °F 29% 30.16 in 10.0 mi WNW 6.9 mph - N/A   Clear
6:15 PM 33.1 °F 28.7 °F 4.8 °F 30% 30.17 in 10.0 mi NW 4.6 mph - N/A   Clear
6:35 PM 32.5 °F 29.3 °F 5.0 °F 31% 30.17 in 10.0 mi NNW 3.5 mph - N/A   Clear
6:55 PM 29.5 °F - 11.1 °F 46% 30.18 in 10.0 mi Calm Calm - N/A   Clear
7:15 PM 26.8 °F - 14.2 °F 59% 30.18 in 10.0 mi Calm Calm - N/A   Clear
7:35 PM 26.2 °F - 14.4 °F 61% 30.18 in 10.0 mi Calm Calm - N/A   Clear
7:55 PM 25.0 °F 20.7 °F 15.4 °F 67% 30.19 in 10.0 mi WSW 3.5 mph - N/A   Clear
8:15 PM 23.7 °F - 15.8 °F 72% 30.19 in 10.0 mi Calm Calm - N/A   Clear
8:35 PM 23.7 °F - 15.8 °F 72% 30.20 in 10.0 mi Calm Calm - N/A   Clear
8:55 PM 22.3 °F - 15.6 °F 76% 30.20 in 10.0 mi Calm Calm - N/A   Clear
9:15 PM 21.6 °F - 14.9 °F 76% 30.21 in 10.0 mi Calm Calm - N/A   Clear
9:35 PM 21.6 °F - 16.5 °F 81% 30.22 in 10.0 mi Calm Calm - N/A   Clear
9:55 PM 20.5 °F - 15.6 °F 81% 30.23 in 10.0 mi Calm Calm - N/A   Clear
10:15 PM 20.1 °F - 14.9 °F 80% 30.22 in 10.0 mi Calm Calm - N/A   Clear
10:35 PM 19.8 °F - 15.8 °F 85% 30.22 in 10.0 mi Calm Calm - N/A   Clear
10:55 PM 19.9 °F - 15.3 °F 82% 30.23 in 10.0 mi Calm Calm - N/A   Clear
11:15 PM 19.0 °F - 15.4 °F 86% 30.22 in 10.0 mi Calm Calm - N/A   Clear
11:35 PM 18.7 °F - 14.7 °F 85% 30.23 in 10.0 mi Calm Calm - N/A   Clear
11:55 PM 18.5 °F - 15.3 °F 87% 30.22 in 10.0 mi Calm Calm - N/A   Clear